To NAV CANADA Home Page Login to a new session Search on AWWS site Feedback and Comments Disclaimer Vers la page française équivalente Tips FAQ What's new on the site To the Forecasts and Observations / NOTAM section To "File a Flight Plan" website Publications and other links Update of the User's profile FIC Telephone Numbers My Weather Data Folder Route Weather Data Regional Weather Data Local Weather Data To the Forecasts and Observations / NOTAM section
Request Generated 05/29/2015 at 12:05:32 UTC . Weather information available at that time is displayed.

METAR/TAF

BERENS RIVER/MB    

METAR CYBV 291200Z 35013G20KT 15SM BKN009 01/M01 A3016 RMK SC6
SLP223=
LWIS CYBV 291100Z AUTO 34010G21KT 320V020 01/M01 A3014=
LWIS CYBV 291000Z AUTO 34010G18KT 02/00 A3011=

CYBV - No TAF is issued for this station

Your time UTC time
Weather data provided by Environment Canada and NAV CANADA